Miscellaneous Local Product
Issued by NWS North Platte, NE

Home | Current Version | Previous Version | Text Only | Print | Product List | Glossary On
Versions: 1 2 3 4 5 6 7 8 9 10 11 12 13 14 15 16 17 18 19 20 21 22 23 24 25 26 27 28 29 30 31 32 33 34 35 36 37 38 39 40 41 42 43 44 45 46 47 48 49 50
024
AXUS43 KLBF 060810
MISLBF


WESTERN AND NORTH CENTRAL NEBRASKA HOURLY WEATHER ROUNDUP
NATIONAL WEATHER SERVICE NORTH PLATTE NE
200 AM CST SAT FEB 06 2016

NOTE: "FAIR" INDICATES FEW OR NO CLOUDS BELOW 12,000 FEET WITH NO
SIGNIFICANT WEATHER AND/OR OBSTRUCTIONS TO VISIBILITY.

NOTE: STATIONS NOT REPORTING VARIABLES SUCH AS SKY/WEATHER OR
PRESSURE ARE PROVIDED BY THE NEBRASKA DEPARTMENT OF
ROADS...RAWS...AND APRS NETWORKS...AND ARE NOT UNDER
NATIONAL WEATHER SERVICE QUALITY CONTROL.

...OBSERVATIONS IN AND NEAR THE EASTERN PANHANDLE OF NEBRASKA...

CITY           SKY/WX    TMP DP  RH WIND       PRES   REMARKS
PINE RIDGE     CLOUDY    26  14  60 W6        30.16F WCI  19
CHADRON        CLOUDY    22  13  68 SW9       30.18F WCI  12
ALLIANCE       CLOUDY    11   7  84 W13       30.18F WCI  -4
SIDNEY         CLOUDY    19   9  65 W17       30.23F WCI   4
CRESCENT LAKE    N/A     21  13  72 W6          N/A  WCI  13
BIG SPRINGS      N/A     17  11  78 W7          N/A  WCI   8
$$

...OBSERVATIONS IN NORTH CENTRAL NEBRASKA...

CITY           SKY/WX    TMP DP  RH WIND       PRES   REMARKS
VALENTINE      CLOUDY    19  16  88 SW6       30.17F WCI  11
THEDFORD       CLEAR     21  18  87 W6        30.22F WCI  13
AINSWORTH      CLEAR     23  19  86 SW3       30.18F
O`NEILL        CLEAR     25  22  89 SW7       30.21F WCI  17
ORD            CLEAR     23  20  88 NW5       30.24F WCI  17
BROKEN BOW     CLOUDY    17  16  95 CALM      30.23F
VALENTINE NWR    N/A     23  18  80 W5          N/A  WCI  17
BUTTE            N/A     25  22  89 SW7         N/A  WCI  17
HALSEY           N/A     20  17  89 W5          N/A  WCI  14
CHAMBERS         N/A     21  18  88 S3          N/A
EWING            N/A     19  17  93 CALM        N/A
$$

...OBSERVATIONS IN SOUTHWEST NEBRASKA AND FAR NORTHEAST COLORADO...

CITY           SKY/WX    TMP DP  RH WIND       PRES   REMARKS
WRAY           FAIR      14   9  79 SW6       30.29S WCI   5
HOLYOKE        FAIR      18  10  73 W13       30.26F WCI   4
IMPERIAL       CLOUDY    17   9  70 W9        30.26F WCI   6
OGALLALA       CLOUDY    13   7  76 W10       30.25F WCI   0
NORTH PLATTE   CLOUDY    12   7  80 NW6       30.26F WCI   3
MCCOOK         CLOUDY    17  13  84 SW6       30.28F WCI   9
LEXINGTON      CLOUDY    11   8  89 NW6       30.27S WCI   2
PAXTON           N/A     18  14  82 W6          N/A  WCI  10
STAPLETON        N/A     18  15  86 CALM        N/A
GOTHENBURG       N/A     19  17  93 CALM        N/A
CALLAWAY         N/A     15  14  94 W3          N/A
$$

...OBSERVATIONS IN CENTRAL LINCOLN COUNTY AREA...

CITY           SKY/WX    TMP DP  RH WIND       PRES   REMARKS
N.P. AIRPORT   CLOUDY    12   7  80 NW6       30.26F WCI   3
N.P. DOWNTOWN    N/A     18  15  87 CALM        N/A
N.P. SOUTHEAST   N/A     19  15  83 CALM        N/A
N.P. HILLCREST   N/A     18  16  92 W3          N/A
$$

...SOME OBSERVATIONS FROM AROUND THE REGION...

CITY           SKY/WX    TMP DP  RH WIND       PRES   REMARKS
DENVER         CLOUDY    23   5  46 SW18      30.22F WCI   9
LARAMIE        CLOUDY    19   9  65 SW24G32   30.23F WCI   2
CHEYENNE       CLOUDY    26  11  52 W17       30.20F WCI  13
SCOTTSBLUFF    CLEAR     15   9  76 CALM      30.22F
RAPID CITY     CLOUDY    26  16  65 CALM      30.09F
BISMARCK       CLEAR     25  19  78 CALM      29.97F
PIERRE         CLEAR     28  23  81 SW13      30.09F WCI  17
WINNER         FAIR      29  19  66 SW9       30.15F WCI  20
SIOUX FALLS    FOG       22  21  96 SW3       30.17F VSB 1/2
OMAHA          CLOUDY    30  28  92 NW8       30.26S WCI  22
GRAND ISLAND   CLEAR     23  20  88 W8        30.27S WCI  14
KANSAS CITY    CLEAR     31  24  75 NE6       30.24S WCI  25
WICHITA        MOCLDY    33  26  75 CALM      30.29R
OKLAHOMA CITY  MOCLDY    42  32  67 W5        30.28S
LIBERAL        CLEAR     21  12  68 NW8       30.33S WCI  12
HAYS           CLEAR     23  10  58 NW8       30.31R WCI  14
GOODLAND       CLOUDY    16   8  71 W12       30.29S WCI   3
$$




USA.gov is the U.S. government's official web portal to all federal, state and local government web resources and services.